Temp_Advection
nan nan nan nan nan nan nan nan nan nan nan nan nan nan nan nan nan nan nan nan nan nan nan nan nan nan nan nan nan nan nan nan nan nan nan nan nan nan nan nan nan nan nan nan nan nan nan nan nan
nan -0 0 0 -0 -0 0 0 0 -0 -0 -0 -0 0 -0 -0 -1 -0 0 -0 -0 -0 0 0 0 0 -0 -0 -0 0 0 0 -0 -0 -0 -0 -0 0 0 0 0 -0 -0 -0 -0 -0 -0 -0 nan
nan -0 0 -0 -0 0 0 -0 -0 0 0 0 -0 -0 -0 -0 -0 -0 0 0 0 0 0 0 0 0 0 0 -0 0 0 0 -0 -0 -0 0 0 0 0 0 -0 -0 -0 -0 -0 -0 -0 -0 nan
nan -0 -0 0 -0 0 0 -0 -0 -0 -0 -0 -0 -0 -0 -0 -0 -0 0 0 0 0 0 0 0 0 0 0 0 -0 -0 0 -0 -0 -0 -0 -0 -0 -0 -0 0 -0 -0 -0 0 0 0 0 nan
nan 0 -0 -0 -1 0 0 -0 -1 -0 -0 -0 0 -0 -0 -0 0 0 0 0 0 0 0 0 0 0 -0 0 0 0 -0 -0 -0 -0 -0 -0 -0 -0 -0 0 0 0 -0 -0 0 0 -0 -0 nan
nan 0 0 -0 -0 0 0 0 -0 -0 -0 -0 -0 -0 -0 0 0 0 0 0 0 0 0 0 0 0 0 0 0 0 0 -0 -0 -0 0 0 0 0 -0 0 0 0 -0 -0 -0 -0 -0 -0 nan
nan 0 -0 -0 -0 0 0 0 0 0 -0 -0 0 0 -1 -0 0 -0 -0 0 0 -0 0 0 0 0 0 0 0 0 0 0 0 0 0 0 0 0 0 0 0 0 0 -0 -0 -0 -0 -0 nan
nan -0 -0 -0 0 0 -0 0 -0 -0 -0 -0 0 0 -0 -0 -0 0 -0 -0 0 -0 -0 0 0 0 0 0 0 0 0 0 0 0 0 0 0 0 0 0 0 0 -0 -0 -0 -0 -0 -0 nan
nan -0 -0 -0 -0 -0 0 0 0 0 0 0 0 -0 -0 -0 0 -0 0 -0 -0 0 -0 -0 -0 0 -0 0 -0 0 0 0 0 0 0 0 -0 0 0 0 0 0 -0 -0 -0 -0 -0 -0 nan
nan -0 0 -0 -0 -0 -0 0 -0 0 0 -0 0 0 -0 0 0 -0 -0 -0 -0 -0 0 -0 -0 -0 -0 0 -0 0 0 0 0 0 0 0 -0 0 -0 0 0 -0 -0 -0 -0 -0 -0 -0 nan
nan -0 0 -0 -0 0 0 0 -0 0 -0 -0 -0 -0 -0 0 0 -0 -0 -0 -0 0 -0 -0 0 -0 -0 0 0 0 0 0 0 0 0 -0 0 0 0 -0 -0 -0 0 -0 -0 -0 -0 -0 nan
nan -0 -0 -0 0 -0 0 -0 0 -0 -0 -0 -0 0 1 -0 0 -0 -0 -0 0 -0 0 0 0 0 0 0 0 0 0 0 0 0 -0 0 0 0 0 0 0 0 0 -0 -0 0 -0 -0 nan
nan -0 -0 0 0 -0 -0 0 -0 -1 -0 0 0 1 0 -0 0 -0 -0 -0 0 0 0 0 0 0 1 0 0 0 0 0 0 -0 0 0 0 0 0 0 -0 -0 -0 -0 -0 -0 -0 0 nan
nan -0 0 0 0 0 -0 -0 -0 -0 -0 0 0 0 0 0 -0 -0 -0 -0 -0 0 0 0 0 0 0 -0 0 0 0 0 0 0 -0 0 -0 -0 -0 -0 -0 -0 -0 0 0 0 -0 -0 nan
nan 0 0 -0 -0 0 0 0 -1 -2 0 0 0 1 0 0 -0 0 0 0 0 0 0 0 0 0 0 -0 0 -0 0 0 0 -0 -0 -0 -0 -0 -0 -0 -0 -0 -0 0 0 0 0 0 nan
nan 0 0 0 0 0 0 -0 0 -0 0 0 0 -0 -0 0 0 0 0 0 0 0 0 0 0 0 -0 -0 0 0 0 -0 -0 -1 -0 -0 -0 0 0 -0 -0 -0 0 0 0 0 0 0 nan
nan -0 -0 -0 0 -0 0 -1 0 0 0 -0 -0 -0 -0 0 -0 0 0 0 0 0 0 0 0 0 -0 0 0 0 -0 -0 -0 -0 0 0 0 0 0 -0 0 -0 -0 0 0 -0 0 0 nan
nan -0 -0 -0 0 0 0 -0 -1 -1 -0 -0 -0 -0 0 -0 0 0 0 0 0 0 0 0 0 0 0 1 0 0 -0 -0 0 0 0 0 -0 0 0 0 0 0 0 0 0 0 -0 -0 nan
nan -0 -0 0 -0 0 0 -0 -1 -1 0 0 -0 -0 -0 -0 0 0 1 1 0 0 0 0 1 0 1 0 -0 -1 -1 0 0 0 -0 -0 0 0 0 0 0 0 0 0 0 0 -0 -0 nan
nan 0 -0 0 -0 0 0 -0 -1 -0 -0 -1 -0 -0 -0 -0 0 1 1 1 1 1 1 1 1 0 0 0 -0 -0 0 1 0 0 -0 0 0 0 0 0 0 0 0 0 0 0 0 0 nan
nan -0 -0 0 -0 0 0 -0 -1 -0 -0 -1 -0 0 0 -0 -0 0 1 1 1 1 1 0 1 1 0 0 0 0 0 -0 -0 -0 -0 0 0 0 0 0 0 0 0 0 0 0 0 0 nan
nan -0 0 -0 -0 0 -0 -0 -1 0 0 0 -0 -1 -0 -0 0 0 0 1 1 1 1 1 1 1 1 0 0 -0 -1 -1 0 0 0 0 0 0 0 0 0 0 0 0 0 0 0 0 nan
nan -0 -0 -0 -0 -0 0 -0 -2 -0 -1 -1 -0 0 -1 -1 -1 -0 0 0 0 1 1 1 1 1 1 1 1 0 0 0 0 0 0 0 0 0 0 0 0 0 0 0 0 0 0 0 nan
nan 0 -0 -0 -0 -0 -0 -0 -0 0 -0 -0 -1 -1 -2 -1 -1 -1 -0 -0 0 1 1 0 1 1 1 1 0 -0 0 0 0 -0 -0 0 0 0 0 0 0 0 0 0 0 0 0 0 nan
nan -0 -0 -0 -0 -1 -0 0 -0 -0 -1 -0 -1 -1 -1 -1 -1 -1 -0 -0 0 0 0 0 0 0 0 0 -0 0 1 1 0 -0 0 0 0 0 0 0 0 0 0 0 0 0 0 0 nan
nan 0 -1 -0 -0 -0 -0 -0 -0 -0 -0 -1 -1 -1 -1 -1 -0 -0 -0 -0 -0 -0 -0 -0 0 0 0 -0 -0 0 0 0 0 -0 -0 0 0 0 0 0 0 0 0 0 0 0 0 0 nan
nan -0 0 0 0 -0 -0 -0 -1 -0 -0 -0 -1 -1 -1 -1 -1 -1 -1 -0 -0 -0 0 -0 -0 -0 0 -0 -0 0 1 1 -0 -0 -0 0 0 0 0 0 1 0 0 0 0 0 0 0 nan
nan 0 -0 -0 0 -0 -0 0 -0 -0 -0 -0 -1 -1 -1 -1 -1 -1 -1 -1 -1 -0 -0 -0 -0 -0 0 0 -0 -0 -0 1 2 1 -0 0 1 0 0 0 0 0 0 0 0 0 0 0 nan
nan 0 -0 0 -0 0 0 0 -0 -1 -0 -0 -0 -0 -1 -1 -1 -1 -1 -1 -1 -1 -1 -1 -1 -1 -1 -0 0 0 0 1 1 0 1 0 0 0 0 0 0 0 0 0 0 0 0 0 nan
nan nan nan nan nan nan nan nan nan nan nan nan nan nan nan nan nan nan nan nan nan nan nan nan nan nan nan nan nan nan nan nan nan nan nan nan nan nan nan nan nan nan nan nan nan nan nan nan nan
Wind_Speed
3 4 4 1 1 3 4 4 7 7 4 5 6 7 7 16 6 4 14 6 11 5 3 6 5 5 4 5 4 4 4 4 5 5 5 6 8 9 10 10 11 11 11 11 11 12 12 12 11
1 4 2 4 2 3 3 8 4 7 10 8 7 2 1 4 10 13 15 8 10 9 5 3 5 5 4 4 4 5 4 4 4 6 6 5 8 7 8 8 9 10 10 11 11 11 12 12 12
4 4 2 3 4 2 3 3 10 14 10 5 4 4 4 6 8 12 14 15 11 13 8 6 5 6 5 5 5 5 4 4 4 4 5 5 6 5 7 7 8 8 9 10 11 12 12 12 11
4 2 5 1 9 7 7 8 15 9 6 3 3 8 6 11 8 11 13 14 10 9 7 7 7 6 5 5 5 5 5 4 4 4 4 4 4 3 3 4 5 5 7 7 9 9 10 10 10
4 3 2 4 9 6 6 13 14 7 9 9 4 5 7 10 11 12 15 14 12 8 7 8 8 7 6 5 5 5 4 4 3 2 3 2 2 1 2 3 4 3 4 5 6 7 8 10 10
3 3 3 5 2 7 5 6 5 7 10 10 4 3 7 12 12 15 14 14 13 11 7 10 8 7 6 6 7 6 4 3 2 2 2 1 1 2 2 1 1 1 2 2 3 4 6 8 8
2 1 6 7 7 5 5 6 4 2 9 10 1 2 10 11 14 14 13 13 13 12 7 7 8 8 7 7 7 6 5 3 2 3 2 2 2 2 1 1 1 1 1 1 1 2 4 7 7
1 1 5 4 3 3 6 7 1 2 2 9 6 2 8 17 16 14 14 11 10 10 11 6 7 9 7 8 8 7 6 4 4 4 3 2 1 1 2 2 2 2 1 1 2 4 6 8 8
2 1 5 4 3 3 5 5 4 3 3 5 5 1 9 18 16 17 16 13 10 10 12 14 10 9 7 9 9 7 6 6 5 4 4 3 3 1 2 1 1 2 2 3 4 6 7 8 10
3 2 2 4 4 4 6 8 12 4 8 7 9 8 11 14 15 19 19 18 16 12 12 13 13 13 13 9 9 9 7 6 6 6 6 5 6 5 1 1 2 3 3 3 5 6 5 2 4
4 3 4 5 4 1 3 6 2 7 5 15 19 19 15 17 17 19 18 17 18 15 13 14 14 14 13 11 9 8 7 7 7 7 7 7 5 4 2 1 1 2 2 3 5 6 8 7 4
3 8 3 3 2 2 3 2 3 14 12 2 13 14 22 22 21 22 20 20 18 20 18 16 15 16 14 13 11 6 7 7 7 9 8 7 5 5 5 6 5 3 4 3 3 3 6 6 7
4 4 2 1 2 4 6 6 7 15 17 16 14 14 17 18 21 21 20 19 20 20 21 20 18 16 15 15 12 10 9 10 7 9 9 9 6 5 8 5 4 4 6 6 7 7 9 8 9
3 5 3 4 6 5 3 6 7 8 9 18 15 14 17 18 19 21 21 22 22 20 21 21 19 18 16 18 13 15 12 10 11 9 8 10 10 8 7 8 8 9 7 8 8 8 9 9 9
1 3 6 10 7 1 2 7 12 26 8 11 16 16 14 18 20 23 23 22 22 22 20 20 20 18 17 16 16 15 14 13 15 14 12 10 11 10 9 9 9 9 8 8 8 8 9 7 6
4 3 2 4 9 3 2 8 6 9 17 10 12 15 17 19 21 22 22 23 23 22 22 20 20 20 21 18 18 16 17 17 14 15 12 11 10 10 9 9 9 7 8 7 8 8 8 8 8
5 4 5 5 10 4 6 7 4 4 6 9 12 15 17 18 22 23 24 24 25 26 24 23 23 22 22 21 20 18 18 17 18 16 14 12 11 10 10 9 9 7 8 7 7 8 7 7 9
3 4 5 4 7 4 6 12 12 17 13 15 16 16 18 21 23 24 26 27 26 25 26 25 25 25 22 23 22 20 20 18 18 16 15 13 12 11 11 9 9 7 7 7 6 7 8 8 9
3 4 6 5 3 3 7 11 13 19 19 19 23 22 22 21 21 21 22 27 28 27 27 27 26 27 24 25 27 25 23 19 20 18 17 15 14 13 12 11 9 8 8 7 7 7 8 8 10
2 6 7 6 8 2 7 11 14 11 14 24 24 20 19 19 21 23 24 24 29 30 30 29 28 28 25 26 26 24 21 19 19 19 19 17 16 14 14 12 11 9 8 8 7 7 8 8 9
6 7 6 5 1 6 5 8 5 5 21 22 14 10 7 7 4 6 19 25 26 32 33 31 29 29 28 26 26 24 21 19 21 23 22 21 19 18 17 14 12 10 9 8 7 8 8 9 10
4 4 4 3 4 2 1 5 5 7 5 5 2 20 14 6 3 6 8 19 24 26 28 28 30 30 30 28 27 28 29 27 24 22 20 21 21 20 18 15 13 12 10 9 8 9 10 11 11
2 3 5 2 0 5 3 2 7 2 9 9 14 18 17 16 15 6 3 5 13 19 23 23 25 27 29 29 28 29 29 25 22 21 21 22 23 23 19 17 15 13 11 10 10 11 12 13 13
9 5 6 3 2 2 9 7 5 3 3 6 17 21 21 19 18 15 8 3 8 12 15 16 21 24 27 27 28 29 28 25 24 24 23 24 23 23 21 19 17 15 13 11 10 12 14 14 15
5 5 2 2 2 6 3 2 7 6 10 12 15 25 25 21 20 16 15 11 3 7 11 13 16 20 23 26 27 27 27 25 27 28 25 24 24 23 23 20 18 16 14 12 12 13 14 14 15
8 7 5 7 4 4 3 5 4 14 22 26 25 23 25 27 28 29 19 12 8 7 5 5 10 14 17 21 24 24 26 28 30 31 28 26 25 23 22 21 20 17 14 12 14 15 14 15 15
5 6 1 1 5 4 4 5 7 11 12 18 19 23 25 24 25 26 26 27 13 5 6 6 8 11 15 19 21 22 23 29 32 34 32 29 25 24 24 23 21 17 14 13 14 14 14 14 15
1 1 3 1 3 4 5 5 4 7 9 9 13 19 21 21 22 22 20 20 21 19 15 11 11 13 16 18 22 24 25 26 30 36 35 32 27 26 25 23 21 18 15 13 13 14 13 16 16
4 2 3 1 3 5 2 2 5 9 8 9 13 17 18 20 21 22 22 20 15 14 12 12 15 17 18 20 23 26 28 29 31 35 36 35 31 28 25 25 22 19 15 12 12 12 14 16 17
2 7 7 5 5 4 4 3 7 8 11 13 14 15 16 17 18 18 19 20 22 21 20 17 17 17 20 23 22 24 27 28 31 34 33 32 31 29 26 26 24 20 15 11 10 13 15 20 18
Wind_Direction
121 72 38 2 337 212 220 66 100 97 147 55 57 17 43 43 18 93 143 150 148 151 201 154 144 134 134 130 125 112 101 90 86 82 85 74 68 68 69 74 78 73 69 65 65 68 74 79 71
132 105 48 287 235 263 65 123 128 104 96 107 94 86 68 79 80 122 137 146 136 127 158 168 153 140 142 141 136 128 119 109 97 96 92 82 80 81 74 74 71 69 70 70 69 67 63 63 65
112 92 266 209 244 1 95 56 94 95 122 132 106 33 44 89 111 124 151 154 150 148 183 199 173 159 153 148 149 135 133 120 111 102 101 98 99 85 80 74 67 64 67 69 67 63 64 63 60
94 332 274 287 282 55 53 92 105 125 113 60 18 109 94 84 128 160 152 141 150 149 193 187 177 164 154 154 154 149 141 133 128 122 114 108 110 92 70 58 61 64 66 69 74 77 74 70 60
31 276 271 216 259 101 65 97 132 155 147 157 205 114 109 131 150 154 152 152 142 171 200 178 171 163 156 155 166 159 147 144 140 144 145 161 130 120 83 69 77 76 74 68 72 76 64 55 45
264 265 279 236 257 80 89 109 156 170 141 117 169 127 106 173 158 156 159 150 156 174 162 172 174 169 172 170 176 169 169 159 165 186 206 214 151 145 142 127 103 92 80 74 75 73 60 34 35
251 264 267 315 324 123 126 137 183 209 136 161 142 227 139 163 164 168 153 161 173 184 167 168 179 183 186 188 188 194 182 180 201 228 230 219 231 222 220 230 244 243 211 87 32 40 17 7 8
294 352 282 257 350 98 86 147 12 324 116 113 158 322 154 169 177 164 159 170 189 166 170 185 193 190 196 195 192 191 203 220 222 221 220 219 237 247 238 249 243 239 297 340 330 330 341 352 350
180 308 265 330 48 84 118 180 179 214 134 181 201 341 115 167 185 166 170 176 198 190 185 193 198 176 205 201 207 214 224 220 215 197 189 173 97 141 251 269 257 232 265 296 312 320 334 355 1
212 216 347 15 46 32 152 229 159 188 210 203 196 202 159 189 185 182 187 192 196 205 200 205 199 201 202 222 202 213 216 212 206 191 194 192 188 205 287 237 258 265 283 287 291 308 319 340 340
210 225 75 88 66 229 193 218 207 201 243 212 206 208 199 199 196 197 202 209 204 209 212 214 206 209 208 203 211 213 203 208 211 194 206 205 210 199 192 82 333 299 279 313 306 328 317 309 293
290 242 347 75 161 225 227 278 202 229 227 335 217 212 211 198 208 204 209 206 211 202 213 220 218 211 205 205 209 202 203 223 221 218 215 213 201 206 188 215 228 247 256 245 308 264 302 326 334
206 272 110 274 242 243 292 258 252 269 244 250 238 205 202 214 213 215 212 218 213 215 209 219 216 218 205 207 202 191 199 224 210 233 223 199 191 208 209 214 211 233 250 256 260 268 261 264 250
23 352 255 208 230 238 248 271 228 268 255 227 230 231 216 217 218 218 217 212 215 222 218 219 221 221 208 203 201 197 195 215 214 228 230 200 205 219 202 233 240 246 259 271 277 279 282 286 284
241 262 207 221 216 289 209 270 228 248 238 215 226 230 238 224 222 221 222 216 217 220 229 226 222 218 212 209 207 204 192 212 218 217 221 219 217 222 227 238 251 260 271 271 275 278 286 291 288
232 201 242 110 160 178 150 279 12 220 208 206 221 231 232 238 228 224 222 222 213 220 222 230 228 221 212 216 215 215 212 218 216 231 229 229 232 238 234 247 254 270 271 276 275 279 281 274 271
197 251 212 159 181 128 179 282 118 139 185 238 237 231 224 236 225 222 218 220 220 214 218 222 227 228 218 220 219 220 223 222 221 231 232 229 231 234 242 246 261 269 277 282 282 281 287 283 280
265 217 223 192 190 198 218 256 277 273 241 229 237 240 230 229 239 228 220 219 220 218 215 221 222 229 225 215 220 220 225 229 226 231 233 231 233 235 242 249 262 269 270 272 278 280 291 298 293
16 316 290 302 134 182 233 253 261 257 257 240 237 237 244 245 252 246 235 226 222 217 217 217 220 224 227 214 218 222 229 232 228 230 235 236 237 235 239 243 247 249 258 269 277 283 292 296 298
208 258 266 282 140 125 275 277 268 252 244 244 252 255 255 253 245 241 233 229 223 221 217 217 219 227 232 226 228 231 237 237 237 234 236 237 238 237 238 242 245 246 248 251 262 273 281 289 295
230 239 263 262 67 203 299 279 255 276 235 245 256 250 269 290 301 237 234 229 228 225 223 218 218 224 232 234 230 227 228 231 232 233 234 235 236 234 236 238 241 242 247 257 267 280 284 285 289
242 349 216 34 50 210 85 286 309 287 196 184 106 77 66 46 257 250 238 228 226 230 233 230 220 220 230 234 232 226 230 235 242 246 242 237 236 238 238 240 242 243 244 252 266 276 283 284 280
201 39 78 63 349 39 219 76 273 322 63 74 76 64 46 29 27 50 256 209 233 241 240 237 224 220 226 236 237 233 234 240 245 244 242 241 238 240 239 238 240 243 243 247 261 277 283 282 279
133 95 77 54 85 341 213 158 281 76 95 68 48 50 45 41 44 30 16 289 222 230 232 233 222 220 228 236 238 239 238 236 238 240 243 244 242 240 238 238 241 243 243 253 269 279 283 283 281
212 143 39 4 359 221 331 194 245 31 76 77 62 57 55 49 42 41 39 41 99 218 235 238 222 221 229 238 243 245 242 234 239 245 247 246 245 240 240 240 243 241 244 259 273 280 282 281 279
203 179 155 202 195 217 3 210 281 96 87 80 75 68 59 52 49 49 48 54 40 345 322 250 229 230 241 247 252 253 243 238 239 245 247 248 250 249 243 241 240 239 248 264 276 280 280 281 282
190 215 136 32 316 71 209 222 74 89 79 75 65 51 46 44 42 38 31 39 43 21 348 329 286 274 261 261 262 262 254 243 242 246 248 247 248 245 242 238 236 239 250 265 277 280 281 281 279
265 309 108 326 172 225 248 219 162 109 97 75 52 40 37 32 32 28 32 35 24 20 13 348 316 296 284 273 269 269 265 259 250 247 248 246 241 240 241 236 235 239 249 264 273 276 279 282 280
161 188 215 156 163 171 190 249 91 82 59 69 55 44 37 32 27 23 21 22 13 11 3 347 333 318 303 287 275 268 265 260 257 251 248 244 239 235 236 236 234 240 248 258 270 278 280 279 279
161 204 170 145 219 213 157 185 85 92 75 69 57 45 41 37 30 23 18 13 12 11 7 358 345 324 315 304 294 279 271 261 253 255 251 244 241 239 233 229 230 235 234 248 267 284 289 280 271
Height
1512 1512 1513 1515 1523 1514 1512 1513 1504 1513 1514 1516 1517 1519 1521 1521 1525 1540 1536 1535 1538 1538 1539 1540 1541 1542 1543 1544 1545 1546 1547 1547 1548 1549 1549 1550 1551 1551 1551 1552 1552 1552 1552 1552 1552 1552 1552 1552 1552
1512 1512 1514 1514 1522 1522 1518 1506 1508 1510 1514 1517 1519 1520 1520 1528 1527 1532 1535 1536 1538 1540 1539 1540 1541 1542 1543 1544 1545 1546 1547 1548 1549 1550 1550 1551 1552 1553 1553 1553 1554 1554 1554 1554 1554 1554 1554 1555 1555
1513 1513 1515 1514 1513 1517 1517 1503 1509 1513 1516 1518 1520 1522 1523 1528 1530 1533 1535 1536 1538 1539 1540 1541 1542 1542 1543 1544 1545 1547 1548 1549 1550 1551 1551 1552 1553 1554 1554 1555 1555 1555 1556 1556 1556 1556 1556 1557 1557
1513 1516 1515 1519 1517 1508 1505 1506 1510 1515 1518 1519 1520 1522 1527 1529 1531 1532 1534 1536 1537 1539 1539 1540 1541 1542 1544 1545 1546 1547 1548 1549 1550 1551 1552 1553 1554 1554 1555 1555 1556 1556 1556 1557 1557 1557 1557 1557 1558
1515 1514 1518 1517 1510 1503 1504 1506 1511 1515 1518 1520 1521 1523 1526 1529 1530 1531 1534 1536 1538 1538 1539 1540 1541 1542 1544 1546 1547 1548 1549 1549 1551 1552 1553 1553 1554 1555 1556 1556 1557 1557 1557 1558 1558 1558 1559 1559 1559
1515 1514 1519 1521 1505 1504 1506 1509 1511 1513 1517 1519 1522 1522 1526 1526 1529 1531 1533 1536 1537 1538 1539 1539 1541 1542 1544 1545 1546 1548 1549 1550 1550 1551 1552 1553 1554 1555 1556 1556 1557 1557 1558 1558 1559 1559 1559 1559 1559
1515 1514 1519 1511 1507 1506 1507 1511 1514 1514 1516 1519 1521 1521 1525 1526 1529 1530 1533 1535 1536 1536 1537 1538 1540 1541 1543 1545 1546 1547 1549 1550 1551 1551 1552 1553 1554 1554 1555 1556 1557 1557 1558 1559 1559 1560 1560 1560 1560
1514 1514 1512 1505 1509 1509 1509 1512 1513 1515 1516 1518 1520 1520 1523 1524 1527 1530 1533 1534 1534 1535 1537 1538 1539 1541 1542 1544 1545 1547 1548 1549 1550 1551 1552 1553 1553 1554 1554 1555 1556 1557 1558 1559 1560 1560 1560 1560 1560
1514 1519 1519 1508 1506 1512 1511 1512 1514 1515 1516 1518 1519 1520 1522 1523 1525 1529 1532 1533 1533 1534 1535 1537 1538 1540 1540 1542 1544 1546 1547 1548 1549 1551 1552 1553 1553 1554 1554 1555 1556 1557 1558 1558 1559 1560 1560 1560 1560
1513 1517 1509 1507 1507 1509 1510 1512 1512 1515 1515 1516 1518 1519 1522 1522 1523 1526 1528 1529 1531 1532 1533 1535 1536 1538 1540 1540 1542 1544 1546 1547 1548 1550 1551 1552 1553 1554 1555 1555 1556 1556 1557 1558 1558 1559 1559 1559 1559
1511 1513 1507 1507 1509 1510 1510 1511 1512 1513 1514 1512 1514 1516 1519 1519 1521 1522 1524 1526 1528 1530 1531 1532 1534 1535 1537 1539 1541 1542 1545 1546 1547 1549 1550 1552 1553 1554 1554 1555 1555 1556 1556 1557 1557 1557 1558 1558 1558
1512 1507 1508 1509 1510 1511 1510 1510 1510 1511 1510 1510 1511 1512 1513 1516 1518 1519 1521 1523 1525 1527 1529 1530 1531 1533 1536 1538 1540 1542 1544 1546 1547 1548 1549 1550 1551 1553 1553 1553 1554 1555 1555 1556 1556 1556 1556 1556 1557
1510 1507 1509 1509 1510 1511 1510 1510 1511 1507 1507 1509 1509 1511 1512 1514 1517 1519 1520 1522 1524 1525 1528 1529 1530 1532 1535 1537 1540 1543 1544 1545 1546 1547 1548 1550 1552 1552 1552 1553 1553 1554 1554 1554 1555 1555 1554 1555 1555
1508 1507 1508 1509 1510 1510 1511 1509 1509 1502 1502 1505 1506 1508 1511 1512 1513 1516 1518 1520 1522 1524 1526 1528 1529 1531 1534 1536 1538 1541 1543 1544 1545 1546 1547 1548 1549 1550 1551 1551 1551 1551 1552 1552 1552 1553 1553 1553 1553
1508 1509 1507 1506 1509 1510 1511 1510 1504 1496 1501 1502 1504 1505 1507 1508 1510 1511 1515 1517 1521 1522 1524 1526 1528 1530 1532 1535 1537 1538 1541 1542 1543 1544 1545 1546 1547 1548 1549 1550 1550 1550 1550 1550 1550 1550 1550 1550 1550
1508 1506 1510 1502 1506 1509 1511 1511 1495 1493 1498 1499 1501 1502 1503 1504 1506 1509 1512 1514 1518 1519 1520 1522 1524 1526 1529 1531 1532 1534 1536 1538 1540 1540 1542 1544 1545 1546 1547 1547 1547 1548 1548 1548 1548 1548 1548 1548 1547
1506 1515 1505 1509 1504 1507 1511 1507 1495 1495 1496 1498 1498 1497 1498 1500 1502 1504 1507 1509 1511 1514 1516 1517 1519 1521 1525 1527 1529 1531 1532 1534 1536 1537 1539 1541 1543 1544 1545 1546 1546 1546 1546 1546 1546 1546 1546 1546 1546
1506 1507 1498 1500 1506 1506 1509 1506 1497 1495 1494 1492 1492 1493 1493 1493 1494 1499 1503 1505 1508 1510 1513 1514 1516 1517 1521 1524 1526 1529 1530 1533 1535 1536 1538 1539 1540 1541 1542 1543 1544 1544 1544 1544 1544 1544 1544 1544 1544
1499 1501 1504 1497 1503 1504 1505 1502 1492 1488 1487 1485 1485 1486 1488 1490 1491 1493 1497 1502 1505 1508 1510 1512 1513 1515 1518 1520 1522 1525 1526 1529 1531 1533 1534 1536 1537 1538 1539 1540 1540 1540 1541 1541 1541 1542 1542 1542 1542
1498 1505 1506 1497 1501 1504 1503 1499 1487 1480 1478 1478 1481 1484 1486 1487 1488 1488 1490 1494 1499 1503 1507 1509 1511 1512 1515 1517 1520 1522 1525 1526 1528 1529 1530 1532 1534 1535 1536 1536 1537 1538 1538 1537 1538 1539 1539 1538 1538
1502 1505 1503 1503 1500 1499 1503 1498 1482 1470 1471 1474 1478 1480 1483 1485 1487 1488 1489 1490 1494 1497 1501 1506 1508 1508 1510 1513 1516 1519 1521 1522 1523 1524 1526 1528 1529 1530 1531 1532 1533 1534 1535 1535 1536 1535 1535 1536 1536
1504 1497 1494 1501 1511 1523 1499 1529 1483 1472 1473 1473 1477 1481 1483 1484 1485 1486 1487 1489 1491 1494 1497 1502 1505 1507 1508 1509 1512 1514 1515 1516 1518 1521 1523 1524 1525 1526 1528 1530 1530 1531 1532 1532 1532 1532 1533 1533 1533
1499 1497 1499 1502 1510 1518 1507 1530 1497 1470 1481 1485 1484 1485 1486 1487 1486 1486 1487 1489 1490 1492 1495 1499 1503 1506 1507 1508 1510 1512 1514 1517 1518 1519 1520 1521 1522 1523 1525 1526 1527 1528 1528 1528 1529 1529 1530 1529 1529
1498 1503 1507 1510 1517 1538 1510 1513 1503 1484 1484 1486 1488 1488 1490 1490 1489 1489 1488 1489 1491 1492 1493 1496 1499 1503 1505 1506 1507 1508 1511 1513 1513 1514 1515 1516 1518 1520 1521 1523 1524 1525 1525 1525 1526 1527 1526 1527 1527
1499 1506 1534 1538 1545 1533 1502 1505 1493 1480 1486 1488 1492 1493 1493 1493 1491 1491 1490 1490 1491 1493 1494 1496 1498 1500 1503 1504 1504 1505 1508 1510 1510 1510 1512 1513 1514 1516 1517 1520 1521 1521 1521 1521 1522 1522 1523 1523 1523
1502 1499 1521 1541 1531 1517 1506 1513 1495 1486 1488 1491 1495 1498 1498 1497 1496 1494 1492 1493 1495 1495 1495 1496 1498 1500 1501 1502 1502 1503 1505 1505 1506 1506 1507 1508 1510 1512 1514 1516 1517 1517 1517 1517 1518 1518 1518 1518 1519
1498 1505 1493 1503 1499 1524 1506 1491 1495 1491 1493 1496 1498 1499 1499 1500 1499 1498 1498 1497 1496 1496 1496 1497 1498 1499 1499 1498 1497 1497 1499 1500 1502 1501 1501 1502 1504 1506 1508 1509 1511 1512 1513 1513 1514 1514 1514 1514 1513
1493 1493 1508 1507 1525 1520 1502 1488 1496 1496 1498 1499 1501 1502 1503 1502 1500 1500 1499 1498 1498 1496 1496 1497 1496 1496 1496 1496 1496 1495 1494 1492 1494 1497 1496 1497 1497 1499 1503 1504 1506 1507 1508 1509 1508 1509 1509 1509 1509
1494 1494 1494 1496 1501 1519 1517 1501 1494 1499 1501 1503 1505 1505 1505 1504 1503 1501 1499 1497 1499 1496 1495 1495 1493 1492 1492 1492 1491 1490 1489 1489 1489 1488 1491 1492 1492 1490 1494 1499 1499 1501 1503 1503 1504 1504 1504 1504 1505
1476 1479 1481 1501 1499 1505 1508 1508 1500 1501 1503 1504 1506 1506 1506 1505 1504 1503 1502 1500 1497 1494 1493 1491 1490 1488 1487 1485 1485 1483 1483 1483 1483 1483 1485 1486 1490 1488 1487 1489 1491 1494 1495 1497 1498 1500 1498 1500 1499